الصفحة الرئيسية
METAR-TAF:

METAR-TAF

مطار :

ساراتوغا, وايومنغ, الولايات المتحدة

دائرة عرض: 41-26-41N, خط طول: 106-49-25W, ارتفاع: 2137 متر

مراقبة الطقس الحالي

تاريخ ووقت الإصدار 11 دقيقة قبل الساعة 18:55UTC
ريح 3 عقدة من الشرق
درجة الحرارة 25°درجة مئوية
الرطوبة 24%
ضغط 1023 hPa
الرؤية: 16.1 كم
سماء صافية

METAR: KSAA 141855Z AUTO 10003KT 10SM CLR 25/03 A3021 RMK AO2

زمن: 13:06 (19:06 UTC)


TAF: مفقودة

أرصاد الطقس والتوقعات من أكثر من 4000 مطار (تقارير الطقس للمطار METAR والتنبؤ بالطقس بالمطارTAF).

المحطات المتاحة هي النقط الصفراء والحمراء على الخريطة.

حرك المؤشر فوق النقطة لمعرفة اسم المحطة.

ثم انقر لمعرفة أرصاد وتوقعات الطقس.

لتغيير الخارطة: اضغط على الأزرار الخضراء مع رمز الصليب الأسود للتكبير. على الزر الأخضر مع شرطة للتصغير، أو على الأسهم الخضراء للخرائط المجاورة.


METAR-TAF: